Location: Svitavy
(49.7500°N, 16.4667°E)
Time: 16:40:37
(UTC+02:00)

ISS - Visible Passes

Search period start: 25 September 2022 00:00
Search period end: 05 October 2022 00:00
Orbit: 414 x 417 km, 51.6° (Epoch: 25 September)

Date Brightness Start Highest point End Pass type
(mag) Time Alt. Az. Time Alt. Az. Time Alt. Az.
25 Sep -3.7 20:34:32 10° WNW 20:37:53 69° N 20:38:20 58° ENE visible
26 Sep -3.5 19:45:51 10° WNW 19:49:12 62° N 19:51:30 18° E visible
26 Sep -1.7 21:22:39 10° WNW 21:24:23 27° W 21:24:23 27° W visible
27 Sep -3.9 20:33:58 10° WNW 20:37:20 82° SSW 20:37:32 76° SE visible
28 Sep -3.8 19:45:16 10° WNW 19:48:38 79° NNE 19:50:42 22° E visible
28 Sep -1.3 21:22:10 10° W 21:23:35 20° W 21:23:35 20° W visible
29 Sep -3.2 20:33:21 10° WNW 20:36:35 45° SSW 20:36:46 45° SSW visible
30 Sep -3.5 19:44:36 10° WNW 19:47:55 65° SSW 19:50:00 21° SE visible
30 Sep -0.8 21:22:07 10° W 21:22:53 13° WSW 21:22:53 13° WSW visible
01 Oct -1.9 20:32:55 10° W 20:35:37 23° SW 20:36:10 22° SSW visible
02 Oct -2.4 19:43:57 10° W 19:47:01 33° SSW 19:49:30 14° SSE visible
03 Oct -0.8 20:33:38 10° WSW 20:34:25 11° SW 20:35:12 10° SSW visible
04 Oct -1.1 19:43:39 10° W 19:45:52 16° SW 19:48:04 10° S visible
